OneWeb SL0399

operational
NORAD ID: 50479 Int'l Des: 2021-132 Owner: ONEWEBN Country: UK Constellation: oneweb
LEOCIRCULARPOLARONEWEB_TYPE

About OneWeb SL0399

Description loading...

Live Position

Loading 3D Globe...

Upcoming Passes

Altitude History

Altitude vs Time

uPlot chart will show altitude changes over time

Two-Line Element Set

1 50479U 21132L 26018.57959341 -.00000393 00000-0 -11445-2 0 9998
2 50479 87.8820 50.8432 0002333 91.6413 268.4982 13.11418623195999
Epoch: Jan 18, 2026 • Age: 22 hours

Current Status

Altitude 1246.8 km
Velocity 7.23 km/s
Sub-Earth Point -75.15°S, 111.3°E
Launch Date Dec 27, 2021
Age 4 years
Type internet

Technical Details

Classification Payload
Mass 148.00 kg
Dry Mass 140.00 kg
Total Mass 148.00 kg
Length 1.30 m
Diameter 1.00 m
Span 5.00 m
Shape Trapezoid+2 pan
Manufacturer ONEWUS
Bus Type ARROW
Phase Status In Orbit
Owner/State ONEWEBN/UK

Large Constellations

Loading constellations...